Location: Ferchesar
(52.6477°N, 12.4298°E)
Time: 17:07:43
(UTC+01:00)

Vanguard 1 - Pass Details

Date: 08 December 2021
Orbit: 652 x 3830 km, 34.2° (Epoch: 22 January)

Event Time Altitude Azimuth Distance (km) Brightness Sun altitude
Rises 05:20:33 0° 277° (W) 7,974 - -24.1°
Reaches altitude 10° 05:28:06 10° 265° (W) 6,807 - -23.0°
Exits shadow 05:34:52 18° 250° (WSW) 5,859 13.5 -21.9°
Maximum altitude 05:41:56 22° 226° (SW) 5,140 13.4 -20.9°
Drops below altitude 10° 05:52:42 10° 183° (S) 5,145 13.8 -19.3°
Sets 05:57:19 0° 169° (S) 5,650 14.3 -18.6°
